Content
SEND FEEDBACK

Daily
Averages
Monthly
Summary
United Kingdom

MELTON, ENGLAND


Home > Europe > United Kingdom > England
Elevation: 95 feet     Latitude: 52 01N     Longitude: 001 24E

WEATHER
 
SELECT A DAY
Number of Records: 65,602;   Date Range: 8/10/96 - 9/18/14
 
SHARE

PRINT THIS DATA

[ ← Previous Day ]
WEATHER ALMANAC - OCTOBER 12, 2013
[ Next Day → ]
[ °C ]   °F
Weather ElementAverageHighLow
Temperature51.3 °F55.4 °F (12:50 am)44.6 °F (10:50 pm)
Dewpoint47.3 °F54 °F (3:50 am)44 °F (12:50 pm)
Humidity86.1 %100 % (1:50 am)60 % (12:50 pm)
Barometer30.06 in30.14 in (12:50 pm)29.98 in (3:50 am)
Wind Speed7.9 mph24.2 mph (1:50 am)
Wind Gust34.5 mph (2:50 am)
Weather ElementAverage
Visibility7.1 mi
Wind DirectionSE (135.8 °)

Weather ElementTotal
Precipitation---
Heating Degree Days15 (Base 65)
Averaged from 31 records on October 12, 2013
WEATHER CONDITIONS BREAKOUT
WIND DIRECTION BREAKOUT
WEATHER BY HOUR - OCTOBER 12, 2013
[ °C ]   °F
Local TimeTemperatureDewpointHumidityBarometerVisibilityWind DirectionWind SpeedGust SpeedPrecipitationEventsConditions
12:50 AM55.4 °F51.8 °F88 %30.04 in6.2 miNNE (30°)23.0 mphRainLight Rain
1:50 AM53.6 °F53.6 °F100 %30.01 in1.6 miNNE (30°)24.2 mphRainRain
2:50 AM53.6 °F53.6 °F100 %30.01 inNE (40°)23.0 mph34.5 mphRainLight Rain
3:50 AM55.0 °F54.0 °F93 %30.00 in3.0 miNE (50°)21.9 mphRainLight Rain
3:50 AM55.4 °F53.6 °F94 %29.98 in3.1 miNE (50°)21.9 mphRainLight Rain
4:50 AM51.8 °F51.8 °F100 %30.01 in3.7 miSE (130°)8.1 mphRainLight Rain
5:50 AM50.0 °F50.0 °F100 %30.06 in5.6 miESE (110°)9.2 mphLight Drizzle
6:50 AM50.0 °F48.2 °F94 %30.06 in6.2 miESE (120°)5.8 mphMostly Cloudy
6:50 AM50.0 °F49.0 °F93 %30.09 in9.0 miESE (120°)5.8 mphRainDrizzle
7:50 AM50.0 °F46.4 °F87 %30.09 in6.2 miESE (110°)5.8 mphMostly Cloudy
8:50 AM51.8 °F48.2 °F88 %30.12 in6.2 miEast (100°)3.5 mphMostly Cloudy
9:50 AM53.0 °F45.0 °F67 %30.13 in19.0 miENE (60°)6.9 mphScattered Clouds
9:50 AM53.6 °F44.6 °F72 %30.12 in6.2 miENE (60°)6.9 mphPartly Cloudy
10:50 AM51.8 °F46.4 °F82 %30.12 in6.2 miEast (80°)5.8 mphPartly Cloudy
11:50 AM53.6 °F44.6 °F72 %30.12 in6.2 miEast (80°)8.1 mphScattered Clouds
12:50 PM53.6 °F44.6 °F72 %30.12 in6.2 miEast (100°)6.9 mphMostly Cloudy
12:50 PM54.0 °F44.0 °F60 %30.14 in19.0 miEast (100°)6.9 mphScattered Clouds
1:50 PM53.6 °F44.6 °F72 %30.12 in6.2 miEast (100°)3.5 mphMostly Cloudy
2:50 PM53.6 °F44.6 °F72 %30.09 in6.2 miNorth (10°)3.5 mphMostly Cloudy
3:50 PM53.0 °F45.0 °F65 %30.09 in19.0 miNorth (10°)4.6 mph
3:50 PM51.8 °F44.6 °F76 %30.06 in6.2 miNorth (10°)4.6 mph
4:50 PM51.8 °F46.4 °F82 %30.06 in6.2 miNorth (10°)3.5 mphPartly Cloudy
5:50 PM50.0 °F44.6 °F82 %30.04 in6.2 miNW (320°)2.3 mphPartly Cloudy
6:50 PM48.2 °F46.4 °F93 %30.06 in6.2 miNNW (330°)2.3 mphMostly Cloudy
6:50 PM48.0 °F46.0 °F90 %30.07 in11.0 miNNW (330°)2.3 mphMostly Cloudy
7:50 PM48.2 °F46.4 °F93 %30.04 in6.2 miWSW (250°)5.8 mphRainLight Rain Showers
8:50 PM48.2 °F46.4 °F93 %30.01 in6.2 miWNW (300°)4.6 mphScattered Clouds
9:50 PM47.0 °F46.0 °F97 %30.03 in5.0 miNW (320°)2.3 mphMist
9:50 PM48.2 °F46.4 °F93 %30.01 in5.0 miNW (320°)2.3 mphOvercast
10:50 PM44.6 °F44.6 °F100 %29.98 inWSW (250°)5.8 mphMostly Cloudy
11:50 PM46.4 °F46.4 °F100 %29.98 in3.1 miWest (280°)4.6 mphMostly Cloudy
Hourly data recorded from EGUW, located miles away from Melton, England







STORIES FROM OUR PARTNERS